Terminal Aerodrome Forecast
Issued by NWS

Home | Current Version | Previous Version | Text Only | Print | Product List | Glossary On
Versions: 1 2 3 4 5 6 7 8 9 10 11 12 13 14 15 16 17 18 19 20
000
FTUS44 KMAF 282300 CCA
TAFPEQ
TAF COR
KPEQ 282354Z 2900/2924 09011G20KT P6SM SCT100 SCT250
     FM290400 08008KT P6SM FEW100 SCT250=

USA.gov is the U.S. government's official web portal to all federal, state and local government web resources and services.